#timestamp,LO_Frequency,Hit 
1497913215.6,286046986.3,N
1497913235.4,286046988.3,N
1497913255.2,286046985.8,N
1497913275.1,286046985.8,N
1497913276.0,286046985.8,N
1497913295.8,286046985.9,N
1497913315.7,286046988.0,N
1497913335.5,286046988.3,N
1497913355.3,286046985.4,N
1497913375.2,286046985.5,N
1497913395.0,286046985.9,N
1497913395.9,286046985.9,N
1497913415.7,286046986.0,N
1497913435.6,286046983.8,N
1497913455.4,286046986.5,N
1497913475.3,286046986.1,N
1497913495.1,286046986.3,N
1497913496.0,286046986.3,N
1497913515.8,286046986.6,N
1497913535.7,286046986.2,N
1497913555.5,286046986.6,N
1497913575.3,286046986.7,N
1497913595.2,286046986.3,N
1497913615.0,286046986.1,N
1497913615.9,286046986.1,N
1497913635.8,286046988.4,N
1497913655.6,286046985.4,N
1497913675.4,286046985.4,N
1497913695.3,286046985.8,N
1497913715.1,286046986.0,N
1497913735.9,286046985.4,N
1497913755.7,286046986.1,N
1497913775.5,286046986.4,N
1497913795.4,286046986.7,N
1497913815.2,286046986.4,N
1497913835.0,286046986.0,N
1497913835.9,286046986.0,N
1497913855.8,286046986.6,N
1497913875.6,286046986.5,N
1497913895.5,286046987.5,N
1497913915.3,286046986.5,N
1497913935.1,286046985.9,N
1497913955.9,286046986.0,N
1497913975.7,286046986.0,N
1497913995.5,286046986.1,N
1497914015.4,286046986.0,N
1497914035.2,286046986.0,N
1497914055.1,286046986.6,N
1497914056.0,286046986.6,N
1497914075.8,286046986.1,N
1497914095.6,286046986.2,N
1497914115.5,286046986.1,N
1497914135.3,286046983.7,N
1497914155.1,286046986.3,N
1497914175.9,286046984.2,N
1497914195.7,286046986.0,N
1497914215.6,286046986.4,N
1497914235.4,286046986.6,N
1497914255.2,286046986.4,N
1497914275.1,286046986.0,N
1497914276.0,286046986.0,N
1497914295.8,286046985.5,N
1497914315.6,286046986.6,N
1497914335.5,286046986.8,N
1497914355.4,286046986.7,N
1497914375.2,286046984.0,N
1497914395.0,286046983.9,N
1497914426.0,286046986.4,Y
1497914435.9,286046991.4,N
1497914455.7,286046999.3,N
1497914475.6,286046999.2,N
1497914495.4,286046999.5,N
1497914515.2,286046996.5,N
1497914535.1,286046999.1,N
1497914536.0,286046999.1,N
1497914555.8,286046999.6,N
1497914575.7,286046999.4,N
1497914595.5,286046999.4,N
1497914615.3,286046999.3,N
1497914635.2,286046998.6,N
1497914655.0,286047000.7,N
1497914655.9,286047000.7,N
1497914675.7,286046998.9,N
1497914695.6,286046998.3,N
1497914715.4,286046998.9,N
1497914735.3,286046999.3,N
1497914755.1,286046999.5,N
1497914756.0,286046999.5,N
1497914775.8,286046998.7,N
1497914795.7,286046999.3,N
1497914815.5,286047000.9,N
1497914835.4,286046998.6,N
1497914855.2,286047000.7,N
1497914875.0,286047000.3,N
1497914875.9,286047000.3,N
1497914895.8,286046998.5,N
1497914915.6,286046998.4,N
1497914935.4,286046998.9,N
1497914955.3,286046999.3,N
1497914975.1,286046998.7,N
1497914995.9,286046996.7,N
1497915015.7,286046996.6,N
1497915035.5,286046999.0,N
1497915055.4,286046999.0,N
1497915075.2,286046998.9,N
1497915095.0,286046999.4,N
1497915095.9,286046999.4,N
1497915115.8,286046998.2,N
1497915135.6,286046998.4,N
1497915155.5,286046998.9,N
1497915175.3,286046996.6,N
1497915195.1,286046996.5,N
1497915215.9,286046996.5,N
1497915235.7,286046998.9,N
1497915255.5,286046999.3,N
1497915275.4,286046999.4,N
1497915295.2,286046996.7,N
1497915315.1,286046999.1,N
1497915316.0,286046999.1,N
1497915335.8,286046997.0,N
1497915355.6,286046996.6,N
1497915375.5,286046997.0,N
1497915395.3,286046996.5,N
1497915415.1,286046999.0,N
1497915435.9,286046998.8,N
1497915455.7,286046998.5,N
1497915475.6,286046998.5,N
1497915495.4,286046998.7,N
1497915515.2,286046998.5,N
1497915535.1,286046998.5,N
1497915536.0,286046998.5,N
1497915555.8,286046998.1,N
1497915575.6,286046998.2,N
1497915595.5,286046998.2,N
1497915615.3,286046998.2,N
1497915635.2,286046998.6,N
1497915655.9,286046998.4,N
1497915675.7,286046998.4,N
1497915695.6,286046999.2,N
1497915715.4,286046999.1,N
1497915735.2,286046999.1,N
1497915755.1,286046999.4,N
1497915756.0,286046999.4,N
1497915775.8,286046999.4,N
1497915795.7,286046996.9,N
1497915815.5,286046997.1,N
1497915835.3,286046996.5,N
1497915855.2,286046996.8,N
1497915875.0,286046997.0,N
1497915875.9,286046997.0,N
1497915895.8,286046996.6,N
1497915915.6,286046997.2,N
1497915935.4,286046999.6,N
1497915955.3,286046999.0,N
1497915975.1,286046998.9,N
1497915995.8,286046998.8,N
1497916015.7,286046998.8,N
1497916035.5,286046999.0,N
1497916055.4,286046997.0,N
1497916075.2,286046999.3,N
1497916095.0,286046999.0,N
1497916095.9,286046999.0,N
1497916115.8,286046999.5,N
1497916135.6,286046998.6,N
1497916155.4,286046999.1,N
1497916175.3,286046999.3,N
1497916195.1,286046996.6,N
1497916215.9,286046996.9,N
1497916235.7,286046999.2,N
1497916255.5,286046996.7,N
1497916275.4,286046999.4,N
1497916295.2,286046999.4,N
1497916315.0,286046996.5,N
1497916315.9,286046996.5,N
1497916335.8,286046999.5,N
1497916355.6,286046999.5,N
1497916375.5,286046999.5,N
1497916395.3,286046999.5,N
1497916415.1,286046996.5,N
1497916435.9,286046999.4,N
1497916455.7,286046999.3,N
1497916475.5,286046996.6,N
1497916495.4,286046997.3,N
1497916515.2,286046997.3,N
1497916535.1,286046997.3,N
1497916536.0,286046997.3,N
1497916555.8,286046996.8,N
1497916575.6,286046999.1,N
1497916595.5,286046998.9,N
1497916615.3,286046999.0,N
1497916635.1,286046999.6,N
1497916655.9,286046998.8,N
1497916675.7,286046999.5,N
1497916695.6,286046999.6,N
1497916715.4,286046998.9,N
1497916735.2,286046999.4,N
1497916755.1,286046998.3,N
1497916756.0,286046998.3,N
1497916775.8,286046998.7,N
1497916795.7,286046998.3,N
